User: anonymous   Login
Location: Unspecified
(0.0000°N, 0.0000°E)
Time: 04:36:24
(UTC+01:00)
Language:

Cosmos 773 Rocket - Orbit

View from above orbital plane
View from above orbital plane
View from above satellite
View from above satellite

Ground track
Ground track

The orbit data is extracted from the following two-line orbital elements,

1 08344U 75094B   15085.47732363  .00000309  00000-0  10837-3 0  9992
2 08344 074.0588 184.8554 0023021 289.3588 070.5077 14.38929464 68638
Epoch (UTC): 26 March 2015 11:27:20
Eccentricity: 0.0023021
inclination: 74.0588°
perigee height: 745 km
apogee height: 778 km
right ascension of ascending node: 184.8554°
argument of perigee: 289.3588°
revolutions per day: 14.38929464
mean anomaly at epoch: 70.5077°
orbit number at epoch: 6863

The dashed part of the orbit path shows where the satellite is in the earth's shadow,  

DLR